DISKSAT C (67221 NORAD) Tracking and Keplerian Element Data

This shows tracking and keplerian element data for the satellite.

Feedback or suggestion? Click here.




ElementValue
Catalog67221
NameDISKSAT C
Epoch Orbit31
Epoch Day354.31471422
Epoch Year2025
RAAN310.4143
Inclination45.0067
Eccentricity0.0004388
Argument of Perigee282.7791
Mean Anonmoly77.2594
Mean Motion15.0565367
Decay Rate1.256E-05
L11 67221U 25305C 25354.31471422 .00001256 00000+0 10191-3 0 9994
L22 67221 45.0067 310.4143 0004388 282.7791 77.2594 15.05653670 313



Live tracking and technical data element details for DISKSAT C (NORAD 67221). DISKSAT C can be tracked NOW for your location showing map with azimuth and elevation plus other details from your city location.







IsCatalogInMostPopularTable: catalog: 67221, numindb: 13
Update: records affected: 1



GetName: 67221 DISKSAT C

Hit Count: updated at: Fri, 16 Jan 2026 09:42:56 GMT